TimePST,TemperatureF,Dew PointF,Humidity,Sea Level PressureIn,VisibilityMPH,Wind Direction,Wind SpeedMPH,Gust SpeedMPH,PrecipitationIn,Events,Conditions,WindDirDegrees,DateUTC
12:56 AM,48.9,24.1,38,29.91,10.0,SW,6.9,-,N/A,,Clear,220,2012-12-08 08:56:00
1:56 AM,48.9,24.1,38,29.90,10.0,SW,5.8,-,N/A,,Partly Cloudy,230,2012-12-08 09:56:00
2:56 AM,46.9,21.9,37,29.90,10.0,SSW,11.5,-,N/A,,Clear,200,2012-12-08 10:56:00
3:56 AM,46.0,21.0,37,29.90,10.0,SW,6.9,-,N/A,,Clear,220,2012-12-08 11:56:00
4:56 AM,46.0,21.0,37,29.91,10.0,South,8.1,-,N/A,,Clear,190,2012-12-08 12:56:00
5:56 AM,45.0,19.0,36,29.91,10.0,SSW,6.9,-,N/A,,Partly Cloudy,200,2012-12-08 13:56:00
6:56 AM,45.0,21.0,39,29.92,10.0,SSW,9.2,-,N/A,,Scattered Clouds,200,2012-12-08 14:56:00
7:56 AM,48.0,19.9,33,29.93,10.0,SSW,10.4,-,N/A,,Scattered Clouds,200,2012-12-08 15:56:00
8:56 AM,52.0,21.0,30,29.93,10.0,Calm,Calm,-,N/A,,Scattered Clouds,0,2012-12-08 16:56:00
9:56 AM,57.0,23.0,27,29.94,10.0,ESE,3.5,-,N/A,,Partly Cloudy,110,2012-12-08 17:56:00
10:56 AM,57.0,25.0,29,29.92,10.0,SSE,5.8,-,N/A,,Partly Cloudy,150,2012-12-08 18:56:00
11:56 AM,61.0,23.0,23,29.88,10.0,South,5.8,-,N/A,,Partly Cloudy,180,2012-12-08 19:56:00
12:56 PM,62.1,21.0,21,29.87,10.0,SSE,3.5,-,N/A,,Partly Cloudy,160,2012-12-08 20:56:00
1:56 PM,64.0,19.0,18,29.85,10.0,South,3.5,-,N/A,,Partly Cloudy,190,2012-12-08 21:56:00
2:56 PM,64.9,18.0,16,29.85,10.0,South,5.8,-,N/A,,Partly Cloudy,170,2012-12-08 22:56:00
3:56 PM,63.0,21.0,20,29.85,10.0,SE,4.6,-,N/A,,Partly Cloudy,130,2012-12-08 23:56:00
4:56 PM,60.1,24.1,25,29.85,10.0,South,4.6,-,N/A,,Partly Cloudy,180,2012-12-09 00:56:00
5:56 PM,57.2,24.8,29,29.87,10.0,South,6.9,-,N/A,,Partly Cloudy,170,2012-12-09 01:56:00
6:56 PM,55.9,24.1,29,29.87,10.0,SSW,8.1,-,N/A,,Partly Cloudy,200,2012-12-09 02:56:00
7:56 PM,53.1,23.0,31,29.88,10.0,SW,5.8,-,N/A,,Partly Cloudy,220,2012-12-09 03:56:00
8:56 PM,53.1,24.1,32,29.88,10.0,SW,5.8,-,N/A,,Partly Cloudy,220,2012-12-09 04:56:00
9:56 PM,52.0,24.1,34,29.88,10.0,SSW,5.8,-,N/A,,Partly Cloudy,210,2012-12-09 05:56:00
10:56 PM,48.2,24.8,40,29.91,10.0,WSW,5.8,-,N/A,,Mostly Cloudy,250,2012-12-09 06:56:00
11:56 PM,51.1,21.9,32,29.88,10.0,SSW,12.7,-,N/A,,Mostly Cloudy,200,2012-12-09 07:56:00